Regional Weather Roundup
Issued by NWS

Home | Current Version | Previous Version | Graphics & Text | Print | Product List | Glossary On
Versions: 1 2 3 4 5 6 7 8 9 10 11 12 13 14 15 16 17 18 19 20 21 22 23 24 25 26 27 28 29 30 31 32 33 34 35 36 37 38 39 40 41 42 43 44 45 46 47 48 49 50
000
ASUS43 KIND 201809
RWRIN

WEATHER ROUNDUP FOR INDIANA
NATIONAL WEATHER SERVICE INDIANAPOLIS IN
100 PM EST SAT DEC 20 2014

NOTE: "FAIR" INDICATES FEW OR NO CLOUDS BELOW 12,000 FEET WITH NO
SIGNIFICANT WEATHER AND/OR OBSTRUCTIONS TO VISIBILITY.

* - STATION DOES NOT REPORT WEATHER SUCH AS PRECIPITATION OR FOG.

+ - STATION NOT QUALITY CONTROLLED BY THE NATIONAL WEATHER SERVICE.
    USE DATA WITH CAUTION...ESPECIALLY DEWPOINT AND RELATIVE
    HUMIDITY OBSERVATIONS.

INZ001>003-010>013-019-020-201900-
NORTHWEST INDIANA

CITY           SKY/WX    TMP DP  RH WIND       PRES   REMARKS
GARY /AIRPORT/ CLOUDY    34  23  64 S5        30.28F WCI  30
KNOX *+        CLOUDY    33  21  63 SW3       30.27F
LA PORTE +     CLOUDY    34  26  71 W6        30.27F WCI  29
6HR MIN TEMP:  32; 6HR MAX TEMP:  34;

MICHIGAN CITY+ CLOUDY    32  21  64 SW7       30.27F WCI  26
MONTICELLO +   CLOUDY    31  28  86 CALM      30.28F
RENSSELAER +   LGT SNOW  32  30  93 S5        30.28F WCI  27
VALPARAISO     CLOUDY    32  24  72 S8        30.27F WCI  25
6HR MIN TEMP:  29; 6HR MAX TEMP:  32;


$$

LMZ046-743>745-201900-
SOUTHERN LAKE MICHIGAN

STATION/POSITION TIME  TEMP WIND        PRES
                       AIR  DIR/SP/G
                 (UTC) (F)  (DEG/KT/KT) (MB)

$$

INZ004-005-014>016-021>024-201900-
NORTH CENTRAL INDIANA

CITY           SKY/WX    TMP DP  RH WIND       PRES   REMARKS
ELKHART        DRIZZLE   30  27  86 CALM      30.27F
GOSHEN         CLOUDY    31  28  89 CALM      30.26F FOG
6HR MIN TEMP:  24; 6HR MAX TEMP:  31;

LOGANSPORT +   CLOUDY    32  28  86 CALM      30.28F
PERU/GRISSOM   CLOUDY    32  32 100 W1        30.27S
6HR MIN TEMP:  28; 6HR MAX TEMP:  32;

ROCHESTER +    CLOUDY    34  28  80 SW5       30.28F WCI  30
SOUTH BEND     CLOUDY    32  25  75 W7        30.27F WCI  26
6HR MIN TEMP:  31; 6HR MAX TEMP:  32;

WARSAW +       CLOUDY    32  27  80 W6        30.26F HAZE    WCI  26

$$

INZ006>009-017-018-025>027-201900-
NORTHEAST INDIANA

CITY           SKY/WX    TMP DP  RH WIND       PRES   REMARKS
ANGOLA *+      PTSUNNY   30  18  59 CALM      30.25F
AUBURN +       CLOUDY    32  27  80 W3        30.27S
FORT WAYNE     CLOUDY    32  27  81 SW7       30.28S HAZE    WCI  26
6HR MIN TEMP:  27; 6HR MAX TEMP:  32;

HUNTINGTON +   CLOUDY    32  26  80 SW3       30.27F
6HR MIN TEMP:  28; 6HR MAX TEMP:  32;


$$

INZ028-029-035-036-043>045-051>053-201900-
WEST CENTRAL INDIANA

CITY           SKY/WX    TMP DP  RH WIND       PRES   REMARKS
GREENCASTLE +  CLOUDY    32  21  64 CALM      30.28F
LAFAYETTE      CLOUDY    31  26  82 W5        30.29F WCI  26
6HR MIN TEMP:  28; 6HR MAX TEMP:  31;

TERRE HAUTE    CLOUDY    34  24  67 CALM      30.29F
6HR MIN TEMP:  29; 6HR MAX TEMP:  34;


$$

INZ030>032-037>040-046>048-054>057-064-065-201900-
CENTRAL INDIANA

CITY           SKY/WX    TMP DP  RH WIND       PRES   REMARKS
ANDERSON       CLOUDY    28  21  74 CALM      30.28
CP ATTERBURY + CLOUDY    32  27  80 MISG      30.29F
COLUMBUS       CLOUDY    30  27  86 CALM      30.29F
FRANKFORT +    PTSUNNY   32  27  82 CALM      30.29F
INDIANAPOLIS   CLOUDY    31  24  75 CALM      30.27F
6HR MIN TEMP:  27; 6HR MAX TEMP:  31;

-EAGLE CREEK   CLOUDY    32  22  66 CALM      30.27F
6HR MIN TEMP:  29; 6HR MAX TEMP:  32;

KOKOMO *+      CLOUDY    32  27  80 W5        30.27F WCI  27
MARION +       CLOUDY    31  28  89 W3        30.28F FOG
MT COMFORT *+  CLOUDY    32  18  55 CALM      30.28F
SHELBYVILLE    CLOUDY    32  24  72 NW3       30.28S
6HR MIN TEMP:  30; 6HR MAX TEMP:  34; 6HR PCP: TRACE;

ZIONSVILLE +   CLOUDY    31  24  73 CALM      30.28F
6HR MIN TEMP:  29; 6HR MAX TEMP:  32;


$$

INZ033-034-041-042-049-050-058-059-201900-
EAST CENTRAL INDIANA

CITY           SKY/WX    TMP DP  RH WIND       PRES   REMARKS
MUNCIE         CLOUDY    31  23  72 CALM      30.27S
6HR MIN TEMP:  29; 6HR MAX TEMP:  32;


$$

INZ060-061-067>069-081>083-085>088-201900-
SOUTHWEST INDIANA

CITY           SKY/WX    TMP DP  RH WIND       PRES   REMARKS
EVANSVILLE     CLOUDY    36  27  69 NE3       30.30F
6HR MIN TEMP:  32; 6HR MAX TEMP:  36;

HUNTINGBURG *+ CLOUDY    34  25  69 NE6       30.29F WCI  29
6HR MIN TEMP:  28; 6HR MAX TEMP:  34;

WASHINGTON +   CLOUDY    33  24  72 CALM      30.28F
6HR MIN TEMP:  29; 6HR MAX TEMP:  33;


$$

INZ062-063-066-070>080-084-089>092-201900-
SOUTH CENTRAL AND SOUTHEAST INDIANA

CITY           SKY/WX    TMP DP  RH WIND       PRES   REMARKS
BLOOMINGTON    CLOUDY    33  26  75 CALM      30.27F
6HR MIN TEMP:  27; 6HR MAX TEMP:  33;


$$



USA.gov is the U.S. government's official web portal to all federal, state and local government web resources and services.